EW8331 Weather Reports


time (UTC)temp
C
wind
direction
speed
KPH
gust
KPH
rain 1hr
cm
rain 24hr
cm
rain mn
cm
humidity
%
barometer
mb
20260506201529 23 278 1.6 17.7 0.00 0.00 0.00 51 1018.9
20260506200026 22 287 3.2 19.3 0.00 0.00 0.00 53 1019.0
20260506194524 22 285 4.8 16.1 0.00 0.00 0.00 53 1019.1
20260506193021 22 20 1.6 11.3 0.00 0.00 0.00 54 1019.2
20260506191518 22 32 1.6 8.0 0.00 0.00 0.00 55 1019.3
20260506190018 22 239 1.6 9.7 0.00 0.00 0.00 55 1019.5
20260506184514 21 82 3.2 9.7 0.00 0.00 0.00 56 1019.7
20260506183011 21 228 0.0 6.4 0.00 0.00 0.00 61 1019.7
20260506181505 19 105 1.6 6.4 0.00 0.00 0.00 64 1019.9
20260506180002 18 70 1.6 6.4 0.00 0.00 0.00 67 1019.9
20260506174601 17 346 0.0 6.4 0.00 0.08 0.00 69 1020.0
20260506173117 17 143 1.6 9.7 0.00 0.08 0.00 72 1020.1
20260506171559 16 154 0.0 4.8 0.00 0.08 0.00 76 1020.2
20260506170049 16 269 0.0 6.4 0.00 0.08 0.00 76 1020.2
20260506164547 15 269 0.0 4.8 0.00 0.08 0.00 78 1020.3
20260506163049 15 215 0.0 9.7 0.00 0.08 0.00 79 1020.4
20260506161552 14 276 1.6 4.8 0.00 0.08 0.00 82 1020.3
20260506160038 13 217 0.0 6.4 0.00 0.08 0.00 82 1020.3
20260506154535 13 204 1.6 4.8 0.00 0.08 0.00 84 1020.5
20260506153033 13 212 1.6 8.0 0.00 0.08 0.00 85 1020.5
20260506151530 12 197 0.0 4.8 0.00 0.08 0.00 87 1020.5
20260506150030 12 277 0.0 6.4 0.00 0.08 0.00 88 1020.5
20260506144527 12 205 0.0 4.8 0.00 0.08 0.00 89 1020.5
20260506143023 12 208 0.0 3.2 0.00 0.08 0.00 91 1020.4
20260506141520 11 208 0.0 1.6 0.00 0.08 0.00 92 1020.3
20260506140020 11 208 0.0 0.0 0.00 0.08 0.00 92 1020.0
20260506134527 11 208 0.0 0.0 0.00 0.08 0.00 93 1019.9
20260506133013 11 208 0.0 0.0 0.00 0.08 0.00 93 1019.8
20260506131511 11 208 0.0 0.0 0.00 0.08 0.00 93 1019.7
20260506130010 11 208 0.0 0.0 0.00 0.08 0.00 94 1019.6
20260506124512 11 208 0.0 0.0 0.00 0.08 0.00 94 1019.5
20260506123006 11 208 0.0 0.0 0.00 0.08 0.00 94 1019.4
20260506121508 11 208 0.0 0.0 0.00 0.08 0.00 94 1019.4
20260506120004 10 208 0.0 0.0 0.00 0.08 0.00 94 1019.3
20260506114557 10 208 0.0 0.0 0.00 0.10 0.00 94 1019.3
20260506113054 10 208 0.0 0.0 0.00 0.10 0.00 94 1019.2
20260506111609 10 208 0.0 0.0 0.00 0.10 0.00 94 1019.0
20260506110052 10 208 0.0 0.0 0.00 0.10 0.00 94 1018.9
20260506104547 10 208 0.0 0.0 0.00 0.15 0.00 94 1018.8
20260506103042 10 208 0.0 0.0 0.00 0.15 0.00 94 1018.9
20260506101542 10 208 0.0 0.0 0.00 0.15 0.00 94 1018.8
20260506100040 9 208 0.0 0.0 0.00 0.15 0.00 94 1018.6
20260506094540 9 208 0.0 0.0 0.00 0.15 0.00 94 1018.7
20260506093038 9 208 0.0 0.0 0.00 0.15 0.00 93 1018.5
20260506091537 9 208 0.0 0.0 0.00 0.15 0.00 93 1018.7
20260506090035 9 208 0.0 0.0 0.00 0.15 0.00 93 1018.8
20260506084534 9 208 0.0 0.0 0.00 0.15 0.00 93 1018.8
20260506083034 9 208 0.0 0.0 0.00 0.15 0.00 93 1018.7
20260506081541 9 208 0.0 0.0 0.00 0.15 0.00 93 1018.8
20260506073029 9 208 0.0 0.0 0.00 0.15 0.00 91 1018.6
20260506071523 10 208 0.0 0.0 0.00 0.15 0.00 91 1018.4
20260506061525 11 208 0.0 1.6 0.00 0.15 0.15 89 1017.9
20260506044512 12 211 4.8 9.7 0.00 0.15 0.15 84 1017.1
20260506043011 13 181 4.8 9.7 0.00 0.15 0.15 83 1017.0
20260506041506 13 207 3.2 6.4 0.00 0.15 0.15 83 1016.7
20260506040004 13 187 4.8 8.0 0.00 0.15 0.15 82 1016.6
20260506034604 13 224 4.8 9.7 0.00 0.15 0.15 81 1016.6
20260506033056 13 221 4.8 9.7 0.00 0.15 0.15 81 1016.4
20260506031555 13 188 4.8 11.3 0.00 0.15 0.15 81 1016.2
20260506030054 13 212 4.8 16.1 0.00 0.15 0.15 80 1016.0
20260506024600 13 203 4.8 9.7 0.00 0.15 0.15 79 1015.7
20260506023052 14 217 4.8 11.3 0.00 0.15 0.15 78 1015.7
20260506021550 14 231 3.2 9.7 0.00 0.15 0.15 78 1015.5
20260506020105 15 214 3.2 12.9 0.00 0.15 0.15 77 1015.5
20260506014606 15 188 4.8 12.9 0.00 0.15 0.15 77 1015.3
20260506013049 15 148 4.8 12.9 0.00 0.15 0.15 77 1015.2
20260506011612 15 203 6.4 12.9 0.00 0.15 0.15 76 1015.4
20260506010049 15 191 4.8 12.9 0.00 0.15 0.15 75 1015.4
20260506004600 15 218 3.2 11.3 0.00 0.15 0.15 75 1015.3
20260506003149 15 163 4.8 12.9 0.00 0.15 0.15 75 1015.2
20260506001546 15 210 6.4 14.5 0.00 0.15 0.15 75 1015.1
20260506000111 15 216 6.4 12.9 0.00 0.15 0.15 75 1014.9
20260505234548 15 212 6.4 14.5 0.00 0.15 0.15 75 1015.1
20260505233043 15 165 3.2 16.1 0.00 0.15 0.15 77 1015.0
20260505231542 15 225 8.0 12.9 0.00 0.15 0.15 77 1015.1
20260505230058 15 207 6.4 12.9 0.00 0.15 0.15 78 1015.2
20260505224541 15 186 3.2 8.0 0.00 0.15 0.15 79 1015.2
20260505223039 15 214 1.6 9.7 0.00 0.15 0.15 80 1015.2
20260505221535 14 200 4.8 12.9 0.00 0.15 0.15 79 1015.3
20260505220033 14 187 6.4 14.5 0.00 0.15 0.15 80 1015.4
20260505214532 14 197 4.8 11.3 0.00 0.15 0.15 81 1015.5
20260505213033 14 233 6.4 12.9 0.00 0.15 0.15 81 1015.6
20260505211535 14 191 4.8 14.5 0.00 0.15 0.15 82 1015.6
20260505210031 14 207 3.2 9.7 0.00 0.15 0.15 83 1015.4
20260505204532 13 210 1.6 9.7 0.00 0.15 0.15 86 1015.6
20260505203023 13 207 3.2 11.3 0.00 0.15 0.15 86 1015.7